User: anonymous   Login
Location: Unspecified
(0.0000°N, 0.0000°E)
Time: 12:37:25
(UTC+00:00)
Language:

GLOBAL-2 - Orbit

View from above orbital plane
View from above orbital plane
View from above satellite
View from above satellite

Ground track
Ground track

The orbit data is extracted from the following two-line orbital elements,

1 43812U 18099BG  24052.93438898  .00001555  00000-0  12813-3 0  9994
2 43812  97.5219 111.9834 0007893  57.2490 302.9494 15.00443551284669
Epoch (UTC): 21 February 2024 22:25:31
Eccentricity: 0.0007893
inclination: 97.5219°
perigee height: 560 km
apogee height: 571 km
right ascension of ascending node: 111.9834°
argument of perigee: 57.2490°
revolutions per day: 15.00443551
mean anomaly at epoch: 302.9494°
orbit number at epoch: 28466

The dashed part of the orbit path shows where the satellite is in the earth's shadow,  

DLR